Location: Miramichi City (Newcastle)
(46.9830°N, 65.5670°W)
Time: 11:45:26
(UTC-03:00)

Iridium 12 - Visible Passes

Search period start: 26 September 2017 00:00
Search period end: 06 October 2017 00:00
Orbit: 776 x 779 km, 86.4° (Epoch: 25 September)

Date Brightness Start Highest point End Pass type
(mag) Time Alt. Az. Time Alt. Az. Time Alt. Az.
26 Sep 7.1 20:09:16 14° E 20:10:24 15° ENE 20:13:09 10° NE visible
26 Sep 5.5 21:49:42 67° SSW 21:50:23 80° W 21:55:39 10° N visible
26 Sep 8.3 23:30:21 10° W 23:32:01 11° WNW 23:33:43 10° NW visible
27 Sep 5.5 21:15:49 49° SE 21:16:53 59° E 21:22:02 10° N visible
27 Sep 7.8 22:56:14 17° W 22:58:03 20° WNW 23:01:49 10° NNW visible
28 Sep 6.1 20:41:48 27° ESE 20:43:31 34° E 20:48:11 10° NNE visible
28 Sep 7.0 22:22:14 25° WSW 22:24:13 33° WNW 22:28:56 10° NNW visible
29 Sep 6.8 20:07:40 14° ESE 20:10:15 20° ENE 20:13:59 10° NNE visible
29 Sep 6.0 21:48:05 30° SSW 21:50:31 57° W 21:55:41 10° N visible
30 Sep 7.3 19:35:28 10° E 19:37:08 11° ENE 19:38:48 10° NE visible
30 Sep 5.4 21:13:43 24° S 21:16:57 83° E 21:22:12 10° N visible
30 Sep 8.3 22:55:38 10° W 22:58:24 14° WNW 23:01:11 10° NW visible
01 Oct 5.7 20:38:55 12° SSE 20:43:30 47° E 20:48:30 10° NNE visible
01 Oct 7.6 22:20:18 10° SW 22:24:29 24° WNW 22:28:42 10° NNW visible
02 Oct 6.4 20:05:49 10° SE 20:10:10 28° E 20:14:33 10° NNE visible
02 Oct 6.7 21:45:48 10° SSW 21:50:42 41° W 21:55:38 10° N visible
03 Oct 7.0 19:33:50 10° ESE 19:36:58 16° ENE 19:40:06 10° NE visible
03 Oct 5.7 21:11:51 10° S 21:17:03 71° W 21:22:17 10° N visible
03 Oct 8.6 22:58:40 10° WNW 22:58:48 10° WNW 22:58:55 10° WNW visible
04 Oct 5.4 20:38:23 10° S 20:43:32 67° E 20:48:43 10° N visible
04 Oct 8.1 22:21:20 10° WSW 22:24:48 18° WNW 22:28:16 10° NNW visible
05 Oct 6.0 20:05:21 10° SSE 20:10:08 38° E 20:14:56 10° NNE visible
05 Oct 7.3 21:46:24 10° SW 21:50:56 29° WNW 21:55:29 10° NNW visible
